Tracking 19574 objects as of 15-Feb-2019
HD Live streaming from Space Station
objects crossing your sky now

SUCHAI

Track SUCHAI now!
10-day predictions
SUCHAI is classified as:


NORAD ID: 42788
Int'l Code: 2017-036Z
Perigee: 498.2 km
Apogee: 512.4 km
Inclination: 97.4 °
Period: 94.6 minutes
Semi major axis: 6876 km
RCS: Unknown
Launch date: June 23, 2017
Source: Chile (CHLE)
Launch site: SRIHARIKOTA (SRI)

Uplink (MHz):
Downlink (MHz): 437.225
Beacon (MHz): 437.229
Mode: CW
Call sign: SUCHAI
Status: Active

aabbcc
Your satellite tracking list
Your tracking list is empty




NASA's NSSDC Master Catalog

Two Line Element Set (TLE):
1 42788U 17036Z   19046.15810718  .00001165  00000-0  53135-4 0  9991
2 42788  97.3697 106.7966 0010336 308.7637  51.2676 15.22557363 91550
Source of the keplerian elements: AMSAT